DateTimeUTC,F1_A11,F1_S11,BsB_S11,BsG_S11,BsR_S11,BbsB_S11,BbsG_S11,BbsR_S11,BaB_A11,BaG_A11,BaR_A11,Tu_S11,T_S11,Uu_S11,U_S11,P_S11,T1_A11
2021-02-24T09:00:00Z,00000200,21000000,,,,,,,-000.05,0000.29,-000.09,16.5,24.0,,00.0,0639.4,31.0
2021-02-24T09:01:00Z,00000200,21000000,,,,,,,0000.50,-000.05,0000.45,16.5,24.1,,00.0,0639.4,31.0
2021-02-24T09:02:00Z,00000200,21000000,,,,,,,-000.26,0000.54,0000.28,16.5,24.1,,00.0,0639.4,31.0
2021-02-24T09:03:00Z,00000200,61000000,,,,,,,0000.60,0000.04,-000.20,16.5,24.1,,00.0,0639.4,31.0
2021-02-24T09:04:00Z,00000200,41000000,-000.04,0000.16,-000.16,0000.35,-000.05,-000.15,0000.08,0000.27,0000.17,16.9,24.0,,00.0,0640.3,31.0
2021-02-24T09:05:00Z,00000200,01000000,-000.03,-000.01,0000.20,-000.11,0000.18,-000.02,-000.14,0000.00,-000.18,16.9,23.9,,00.0,0640.3,31.0
2021-02-24T09:06:00Z,00000200,01000000,0000.03,-000.05,-000.01,0000.23,0000.06,0000.04,-000.17,-000.25,0000.05,17.0,23.9,,00.0,0640.4,31.0
2021-02-24T09:07:00Z,00000200,01000000,0000.44,-000.25,-000.04,0000.11,0000.03,-000.01,-000.08,0000.15,-000.09,16.9,23.9,,00.0,0640.4,31.0
2021-02-24T09:08:00Z,00000200,01000000,-000.36,0000.04,-000.25,-000.20,0000.02,0000.13,0000.18,-000.13,0000.20,16.9,23.9,,00.0,0640.4,31.0
2021-02-24T09:09:00Z,00000200,01000000,0000.10,-000.02,0000.01,0000.27,-000.02,0000.19,-000.17,-000.09,-000.04,16.9,23.9,,00.0,0640.4,31.0
2021-02-24T09:10:00Z,00000200,01000000,0000.11,-000.51,0000.10,0000.07,0000.17,0000.17,0000.05,-000.02,-000.40,16.9,23.9,,00.0,0640.4,31.0
2021-02-24T09:11:00Z,00000200,01000000,-000.23,-000.18,0000.02,-000.16,-000.03,-000.13,-000.25,-000.51,-000.05,16.9,23.9,,00.0,0640.5,31.0
2021-02-24T09:12:00Z,00000200,01000000,0000.33,0000.06,-000.17,0000.19,0000.19,-000.13,-000.39,0000.12,0000.11,16.9,23.9,,00.0,0640.5,31.0
2021-02-24T09:13:00Z,00000200,01000000,0000.62,-000.10,0000.09,0000.00,0000.17,0000.21,-000.27,-000.53,-000.52,16.9,23.9,,00.0,0640.5,31.0
2021-02-24T09:14:00Z,00000200,01000000,0000.14,-000.13,-000.01,-000.19,0000.00,-000.21,-000.56,-000.98,-000.42,16.9,23.9,,00.0,0640.5,31.0
2021-02-24T09:15:00Z,00000200,01000000,0000.15,-000.19,-000.12,-000.00,0000.04,-000.01,-000.62,-000.32,-000.12,16.9,23.9,,00.0,0640.6,31.0
2021-02-24T09:16:00Z,00000200,01000000,0000.01,0000.07,-000.16,-000.32,-000.09,0000.00,-000.64,-000.42,-000.42,17.0,23.9,,00.0,0640.5,31.0
2021-02-24T09:17:00Z,00000200,01000000,0000.02,0000.27,0000.04,0000.02,0000.40,-000.23,-000.38,-000.27,-000.34,17.0,23.9,,00.0,0640.5,30.9
2021-02-24T09:18:00Z,00000200,01000000,0000.03,0000.01,-000.11,0000.42,-000.12,-000.05,-000.30,-000.21,-000.44,17.0,23.9,,00.0,0640.6,31.0
2021-02-24T09:19:00Z,00000200,01000000,0000.09,-000.08,-000.29,0000.19,0000.15,-000.07,-000.20,-000.28,0000.33,17.0,23.9,,00.0,0640.7,31.0
2021-02-24T09:20:00Z,00000200,01000000,0000.53,-000.05,-000.20,0000.35,0000.01,0000.17,-000.30,-000.15,-000.20,16.9,23.9,,00.0,0640.7,31.0
2021-02-24T09:21:00Z,00000200,01000000,-000.12,-000.10,-000.14,0000.06,0000.18,0000.01,-000.21,-000.34,-000.20,16.9,23.9,,00.0,0640.8,31.0
2021-02-24T09:22:00Z,00000200,01000000,-000.16,0000.01,-000.04,-000.16,-000.08,-000.07,-000.29,-000.17,-000.16,16.9,23.9,,00.0,0640.8,31.0
2021-02-24T09:23:00Z,00000200,01000000,0000.15,-000.02,-000.24,-000.35,0000.11,0000.18,-000.47,-000.42,-000.50,16.9,23.9,,00.0,0640.8,31.0
2021-02-24T09:24:00Z,00000200,01000000,0000.22,-000.16,-000.11,-000.26,-000.03,0000.10,0000.22,0000.04,0000.63,16.9,23.9,,00.0,0640.8,31.0
2021-02-24T09:25:00Z,00000200,01000000,0000.30,-000.09,-000.43,0000.04,0000.03,-000.24,-000.11,-000.30,-000.33,16.9,23.9,,00.0,0640.9,31.0
2021-02-24T09:26:00Z,00000200,01000000,0000.47,0000.15,-000.27,0000.13,-000.05,-000.04,-000.12,0000.08,-000.11,16.8,23.9,,00.0,0640.9,31.0
2021-02-24T09:27:00Z,00000200,01000000,0000.24,0000.09,-000.07,-000.38,0000.12,0000.06,-000.11,-000.17,0000.22,16.8,23.9,,00.0,0640.9,30.9
2021-02-24T09:28:00Z,00000200,01000000,0000.63,0000.07,0000.11,-000.32,0000.14,-000.05,-000.45,-000.44,-000.45,16.8,23.9,,00.0,0641.0,31.0
2021-02-24T09:29:00Z,00000200,01000000,-000.23,0000.15,-000.18,-000.12,-000.13,0000.06,-000.03,0000.10,0000.12,16.8,23.9,,00.0,0641.0,31.0
2021-02-24T09:30:00Z,00000200,01000000,-000.45,0000.16,-000.49,-000.10,-000.02,-000.04,-000.14,-000.07,-000.38,16.8,23.8,,00.0,0641.0,31.0
2021-02-24T09:31:00Z,00000200,01000000,-000.13,0000.17,-000.15,-000.10,0000.05,0000.08,-000.24,-000.10,-000.05,16.8,23.8,,00.0,0641.1,31.0
2021-02-24T09:32:00Z,00000200,01000000,0000.04,-000.15,-000.11,-000.20,-000.19,0000.19,-000.38,-000.51,0000.01,16.7,23.8,,00.0,0641.1,31.0
2021-02-24T09:33:00Z,00000200,01000000,0000.22,-000.02,0000.05,0000.34,0000.05,-000.04,-000.30,-000.20,-000.36,16.7,23.8,,00.0,0641.1,31.0
2021-02-24T09:34:00Z,00000200,01000000,0000.23,-000.20,-000.14,0000.21,0000.05,0000.07,0000.11,-000.07,0000.16,16.7,23.8,,00.0,0641.1,31.0
2021-02-24T09:35:00Z,00000200,01000000,0000.43,0000.00,-000.03,0000.22,-000.10,-000.16,-000.06,0000.29,-000.08,16.7,23.8,,00.0,0641.1,31.0
2021-02-24T09:36:00Z,00000200,01000000,0000.34,0000.12,-000.18,0000.04,-000.14,0000.10,-000.20,-000.67,-000.11,16.7,23.8,,00.0,0641.1,31.0
2021-02-24T09:37:00Z,00000200,01000000,0000.23,0000.01,-000.42,0000.10,0000.28,-000.20,-000.28,-000.05,-000.13,16.6,23.8,,00.0,0641.1,31.0
2021-02-24T09:38:00Z,00000200,01000000,0000.21,-000.07,0000.09,0000.06,0000.07,0000.10,0000.21,-000.07,0000.10,16.6,23.8,,00.0,0641.2,31.0
2021-02-24T09:39:00Z,00000200,01000000,0000.87,-000.02,-000.07,0000.01,0000.15,-000.09,-000.33,0000.02,-000.43,16.6,23.7,,00.0,0641.2,31.0
2021-02-24T09:40:00Z,00000200,01000000,0000.15,-000.19,-000.05,0000.02,-000.04,-000.26,-000.12,-000.35,-000.10,16.6,23.7,,00.0,0641.2,31.0
2021-02-24T09:41:00Z,00000200,01000000,0000.08,-000.11,-000.07,0000.61,0000.02,-000.03,-000.28,-000.03,0000.19,16.6,23.7,,00.0,0641.1,31.0
2021-02-24T09:42:00Z,00000200,01000000,0000.34,-000.13,-000.16,0000.15,0000.02,-000.22,0000.05,0000.15,-000.37,16.6,23.7,,00.0,0641.1,31.0
2021-02-24T09:43:00Z,00000200,01000000,0000.12,-000.13,-000.30,-000.21,-000.09,-000.13,0000.00,-000.09,0000.34,16.5,23.7,,00.0,0641.1,30.9
2021-02-24T09:44:00Z,00000200,01000000,0000.22,0000.35,-000.16,-000.09,-000.13,-000.01,0000.24,0000.03,0000.18,16.5,23.7,,00.0,0641.0,30.9
2021-02-24T09:45:00Z,00000200,01000000,0000.07,-000.07,0000.12,0000.09,-000.17,-000.05,0000.29,0000.26,0000.03,16.6,23.7,,00.0,0640.9,31.0
2021-02-24T09:46:00Z,00000200,01000000,0000.30,0000.12,-000.36,-000.13,0000.16,0000.00,-000.08,-000.08,0000.02,16.7,23.7,,00.0,0640.9,31.0
2021-02-24T09:47:00Z,00000200,01000000,0000.14,-000.06,-000.12,0000.12,-000.04,0000.03,0000.20,0000.13,0000.06,16.7,23.7,,00.0,0640.9,31.0
2021-02-24T09:48:00Z,00000200,01000000,0000.45,0000.14,-000.20,-000.19,0000.20,-000.03,-000.35,-000.02,-000.24,16.8,23.8,,00.0,0640.8,31.0
2021-02-24T09:49:00Z,00000200,01000000,0000.29,0000.06,-000.52,-000.07,-000.03,-000.03,0000.29,0000.17,0000.32,16.9,23.8,,00.0,0640.8,31.0
2021-02-24T09:50:00Z,00000200,01000000,0000.45,-000.08,0000.15,0000.19,0000.05,0000.13,0000.18,0000.34,0000.08,16.9,23.8,,00.0,0640.8,31.0
2021-02-24T09:51:00Z,00000200,01000000,-000.10,-000.27,0000.10,0000.21,-000.06,-000.02,-000.07,-000.02,0000.03,16.9,23.8,,00.0,0640.7,31.0
2021-02-24T09:52:00Z,00000200,01000000,0000.39,-000.02,-000.25,0000.14,0000.14,-000.04,0000.19,-000.03,-000.05,16.9,23.8,,00.0,0640.8,31.0
2021-02-24T09:53:00Z,00000200,01000000,0000.38,-000.01,-000.02,0000.47,-000.08,-000.00,0000.21,0000.15,0000.39,16.8,23.8,,00.0,0640.8,31.0
2021-02-24T09:54:00Z,00000200,01000000,0000.70,-000.04,-000.08,-000.22,-000.11,-000.11,0000.17,-000.01,-000.15,16.8,23.8,,00.0,0640.8,31.0
2021-02-24T09:55:00Z,00000200,01000000,0000.48,-000.06,-000.13,0000.07,0000.27,0000.16,0000.18,0000.37,-000.03,16.8,23.8,,00.0,0640.8,31.0
2021-02-24T09:56:00Z,00000200,01000000,-000.20,-000.09,0000.12,0000.16,0000.07,0000.01,-000.21,-000.03,0000.18,16.8,23.8,,00.0,0640.8,31.0
2021-02-24T09:57:00Z,00000200,41000000,,,,,,,0002.04,0001.67,0000.94,16.8,23.9,,00.0,0640.9,31.0
2021-02-24T09:58:00Z,00000200,61000000,,,,,,,-000.91,-000.67,-000.36,16.5,23.9,,00.0,0639.8,31.0
2021-02-24T09:59:00Z,00000200,21000000,,,,,,,-000.34,-000.56,-000.06,16.4,24.0,,00.0,0639.8,31.0
